This is the latest recevied weather packets stored in our database for station/object KN6DHD. If no packets are shown the sender has not sent any weather packets the latest 1 day(s).
| Time | Temp. | Humidity | Pressure | Rain* | Wind** | Luminosity | Snow |
|---|---|---|---|---|---|---|---|
| 1778023024 | 18.89° C | 75% | 1015.5 hPa | 0 mm | 0.45 m/s, 123° | 144 W/m² | - |
| 1778022723 | 18.89° C | 73% | 1015.5 hPa | 0 mm | 0.89 m/s, 323° | 149 W/m² | - |
| 1778022421 | 18.89° C | 73% | 1015.5 hPa | 0 mm | 0.89 m/s, 151° | 145 W/m² | - |
| 1778022117 | 18.89° C | 74% | 1015.4 hPa | 0 mm | 0 m/s | 116 W/m² | - |
| 1778021813 | 18.89° C | 74% | 1015.6 hPa | 0 mm | 0.45 m/s, 160° | 108 W/m² | - |
| 1778021510 | 18.89° C | 73% | 1015.4 hPa | 0 mm | 0 m/s | 148 W/m² | - |
| 1778021205 | 20° C | 71% | 1015.6 hPa | 0 mm | 0.89 m/s, 206° | 425 W/m² | - |
| 1778020904 | 18.89° C | 74% | 1015.6 hPa | 0 mm | 0 m/s | 188 W/m² | - |
| 1778020601 | 19.44° C | 72% | 1015.6 hPa | 0 mm | 0.45 m/s, 67° | 174 W/m² | - |
| 1778020296 | 20° C | 72% | 1015.6 hPa | 0 mm | 0 m/s | 149 W/m² | - |
| 1778019993 | 19.44° C | 72% | 1015.9 hPa | 0 mm | 0.45 m/s, 85° | 592 W/m² | - |
| 1778019689 | 19.44° C | 71% | 1015.7 hPa | 0 mm | 0.45 m/s, 140° | 315 W/m² | - |
| 1778019386 | 18.89° C | 73% | 1015.9 hPa | 0 mm | 0.45 m/s, 117° | 232 W/m² | - |
| 1778019083 | 19.44° C | 70% | 1016 hPa | 0 mm | 0.45 m/s, 123° | 229 W/m² | - |
| 1778018780 | 19.44° C | 72% | 1016 hPa | 0 mm | 0.45 m/s, 97° | 724 W/m² | - |
| 1778018478 | 20° C | 71% | 1016.1 hPa | 0 mm | 0.89 m/s, 136° | 467 W/m² | - |
| 1778018175 | 19.44° C | 72% | 1015.9 hPa | 0 mm | 0 m/s | 305 W/m² | - |
| 1778017873 | 19.44° C | 73% | 1016.2 hPa | 0 mm | 0.45 m/s, 98° | 193 W/m² | - |
| 1778017571 | 20° C | 71% | 1015.9 hPa | 0 mm | 0 m/s | 354 W/m² | - |
| 1778017268 | 18.89° C | 74% | 1016 hPa | 0 mm | 0 m/s | 471 W/m² | - |
| 1778016966 | 18.89° C | 74% | 1016.1 hPa | 0 mm | 0 m/s | 904 W/m² | - |
| 1778016662 | 18.33° C | 76% | 1016 hPa | 0 mm | 0.45 m/s, 131° | 309 W/m² | - |
| 1778016358 | 18.33° C | 75% | 1015.8 hPa | 0 mm | 0 m/s | 315 W/m² | - |
| 1778016065 | 17.78° C | 78% | 1016 hPa | 0 mm | 0 m/s | 269 W/m² | - |
| 1778015752 | 17.78° C | 77% | 1016.3 hPa | 0 mm | 0.45 m/s, 109° | 258 W/m² | - |
* Rain latest hour (hover to see other rain measurements)
** Current wind speed in m/s (hover to see current wind gust speed)